カタログに戻る

FENGYUN 1C DEB

運用中PO
NORAD 29853·DEBRIS·🇨🇳 China

打ち上げ May 10, 1999 から Taiyuan Satellite Launch Center

Loading…

次のパス (今後24時間)

TLE

最新Source: Space-Track

元期: Sep 14, 2026, 05:50 UTC

1 29853U 99025EX  26257.24369596  .00000886  00000-0  62240-3 0  9997
2 29853  98.4726   1.0562 0159682 176.0887 184.1566 13.94562284995083

AllMySatでFENGYUN 1C DEBをリアルタイム追跡

Download on the App Store